Change the Weather History Date:

Monday, October 21, 2013

  Actual Average Record
Temperature  
Mean Temperature 49 °F 57 °F  
Max Temperature 59 °F 68 °F 90 °F (1978)
Min Temperature 39 °F 46 °F 25 °F (1987)
Degree Days  
Heating Degree Days 16 9  
Month to date heating degree days 145 136  
Since 1 July heating degree days 161 183  
Cooling Degree Days 0 1  
Month to date cooling degree days 37 29  
Year to date cooling degree days 1558 1526  
Moisture  
Dew Point 36 °F    
Average Humidity 61    
Maximum Humidity 82    
Minimum Humidity 39    
Precipitation  
Precipitation 0.00 in 0.10 in 1.92 in (1972)
Month to date precipitation 2.89 2.68  
Year to date precipitation 41.53 36.84  
Sea Level Pressure  
Sea Level Pressure 30.07 in    
Wind  
Wind Speed 7 mph (North)    
Max Wind Speed 15 mph    
Max Gust Speed 20 mph    
Visibility 10 miles    
Events      
T = Trace of Precipitation, MM = Missing Value Source: NWS Daily Summary

Daily Weather History Graph

Daily Weather History Graph

Search for Another Location

Airport or City:

Trip Planner

Search our weather history database for the weather conditions in past years. The results will help you decide how hot, cold, wet, or windy it might be!

Date:

Astronomy

Oct. 21, 2013 Rise Set
Actual Time 7:36 AM CDT 6:36 PM CDT
Civil Twilight 7:09 AM CDT 7:02 PM CDT
Nautical Twilight 6:39 AM CDT 7:33 PM CDT
Astronomical Twilight 6:08 AM CDT 8:03 PM CDT
Moon 8:32 PM CDT (10/21) 10:09 AM CDT (10/21)
Length of Visible Light 11h 53m
Length of Day
10h 59m
Waning Gibbous, 92% of the Moon is Illuminated
Oct 21
Waning Gibbous
Oct 26
Last Quarter
Nov 3
New
Nov 9
First Quarter
Nov 17
Full

Hourly Weather History & Observations

Time (CDT) Temp. Windchill Dew Point Humidity Pressure Visibility Wind Dir Wind Speed Gust Speed Precip Events Conditions
12:52 AM 54.0 °F - 42.1 °F 64% 29.94 in 10.0 mi WSW 8.1 mph - N/A   Scattered Clouds
1:52 AM 55.0 °F - 43.0 °F 64% 29.94 in 10.0 mi WSW 5.8 mph - N/A   Overcast
2:52 AM 53.1 °F - 43.0 °F 69% 29.97 in 10.0 mi NNW 9.2 mph - N/A   Mostly Cloudy
3:52 AM 51.1 °F - 41.0 °F 68% 29.99 in 10.0 mi North 10.4 mph - N/A   Clear
4:52 AM 50.0 °F - 41.0 °F 71% 30.01 in 10.0 mi North 10.4 mph - N/A   Scattered Clouds
5:52 AM 48.9 °F - 39.9 °F 71% 30.03 in 10.0 mi North 9.2 mph - N/A   Overcast
6:52 AM 46.9 °F - 39.0 °F 74% 30.06 in 10.0 mi North 9.2 mph - N/A   Partly Cloudy
7:52 AM 46.9 °F - 37.9 °F 71% 30.10 in 10.0 mi North 6.9 mph - N/A   Mostly Cloudy
8:52 AM 46.9 °F - 36.0 °F 66% 30.12 in 10.0 mi North 13.8 mph - N/A   Mostly Cloudy
9:52 AM 48.0 °F - 34.0 °F 58% 30.12 in 10.0 mi North 11.5 mph - N/A   Mostly Cloudy
10:52 AM 50.0 °F - 32.0 °F 50% 30.13 in 10.0 mi NNE 11.5 mph - N/A   Mostly Cloudy
11:52 AM 51.1 °F - 32.0 °F 48% 30.14 in 10.0 mi North 6.9 mph - N/A   Mostly Cloudy
12:52 PM 57.0 °F - 34.0 °F 42% 30.12 in 10.0 mi NNE 9.2 mph - N/A   Clear
1:52 PM 57.0 °F - 33.1 °F 40% 30.10 in 10.0 mi NE 8.1 mph - N/A   Clear
2:52 PM 57.0 °F - 32.0 °F 39% 30.09 in 10.0 mi Calm Calm - N/A   Clear
3:52 PM 57.9 °F - 32.0 °F 37% 30.08 in 10.0 mi North 5.8 mph - N/A   Clear
4:52 PM 57.0 °F - 32.0 °F 39% 30.07 in 10.0 mi Calm Calm - N/A   Clear
5:52 PM 55.9 °F - 32.0 °F 40% 30.08 in 10.0 mi Calm Calm - N/A   Clear
6:52 PM 46.0 °F - 37.0 °F 71% 30.08 in 10.0 mi Calm Calm - N/A   Clear
7:52 PM 43.0 °F 38.8 °F 37.0 °F 80% 30.08 in 10.0 mi SSE 6.9 mph - N/A   Clear
8:52 PM 41.0 °F 37.1 °F 36.0 °F 82% 30.09 in 10.0 mi South 5.8 mph - N/A   Clear
9:52 PM 41.0 °F 37.1 °F 36.0 °F 82% 30.08 in 10.0 mi South 5.8 mph - N/A   Clear
10:52 PM 41.0 °F 36.4 °F 35.1 °F 79% 30.09 in 10.0 mi South 6.9 mph - N/A   Clear
11:52 PM 42.1 °F - 36.0 °F 79% 30.08 in 10.0 mi North - - N/A   Clear